This is the latest recevied weather packets stored in our database for station/object N4TLC. If no packets are shown the sender has not sent any weather packets the latest 10 day(s).
| Time | Temp. | Humidity | Pressure | Rain* | Wind** | Luminosity | Snow |
|---|---|---|---|---|---|---|---|
| 1777846568 | 20° C | 24% | 1017.8 hPa | 0 mm | - | 268 W/m² | - |
| 1777846265 | 20° C | 24% | 1018 hPa | 0 mm | - | 290 W/m² | - |
| 1777845961 | 20° C | 25% | 1018 hPa | 0 mm | - | 315 W/m² | - |
| 1777845658 | 19.44° C | 25% | 1018.1 hPa | 0 mm | - | 340 W/m² | - |
| 1777845355 | 20° C | 24% | 1018 hPa | 0 mm | - | 357 W/m² | - |
| 1777845052 | 19.44° C | 24% | 1018.1 hPa | 0 mm | - | 382 W/m² | - |
| 1777844750 | 20° C | 23% | 1018.4 hPa | 0 mm | - | 409 W/m² | - |
| 1777844446 | 19.44° C | 23% | 1018.2 hPa | 0 mm | - | 431 W/m² | - |
| 1777844145 | 20° C | 23% | 1018.2 hPa | 0 mm | - | 452 W/m² | - |
| 1777843841 | 20° C | 22% | 1018.4 hPa | 0 mm | - | 473 W/m² | - |
| 1777843539 | 20° C | 23% | 1018.4 hPa | 0 mm | - | 493 W/m² | - |
| 1777843236 | 19.44° C | 24% | 1018.5 hPa | 0 mm | - | 514 W/m² | - |
| 1777842933 | 19.44° C | 24% | 1018.5 hPa | 0 mm | - | 532 W/m² | - |
| 1777842628 | 19.44° C | 24% | 1018.5 hPa | 0 mm | - | 553 W/m² | - |
| 1777842326 | 19.44° C | 24% | 1018.4 hPa | 0 mm | - | 574 W/m² | - |
| 1777842021 | 18.89° C | 24% | 1018.4 hPa | 0 mm | - | 598 W/m² | - |
| 1777841718 | 18.89° C | 24% | 1018.6 hPa | 0 mm | - | 618 W/m² | - |
| 1777841414 | 18.89° C | 24% | 1018.5 hPa | 0 mm | - | 636 W/m² | - |
| 1777841111 | 18.89° C | 24% | 1018.5 hPa | 0 mm | - | 655 W/m² | - |
| 1777840808 | 18.89° C | 24% | 1018.5 hPa | 0 mm | - | 674 W/m² | - |
| 1777840506 | 18.89° C | 23% | 1018.6 hPa | 0 mm | - | 694 W/m² | - |
| 1777840202 | 18.89° C | 23% | 1018.6 hPa | 0 mm | - | 713 W/m² | - |
| 1777839900 | 18.89° C | 25% | 1018.7 hPa | 0 mm | - | 731 W/m² | - |
| 1777839598 | 18.33° C | 24% | 1018.9 hPa | 0 mm | - | 751 W/m² | - |
| 1777839296 | 18.89° C | 23% | 1019 hPa | 0 mm | - | 766 W/m² | - |
* Rain latest hour (hover to see other rain measurements)
** Current wind speed in m/s (hover to see current wind gust speed)